Location: Eschentzwiller
(47.7125°N, 7.3981°E)
Time: 00:49:10
(UTC+00:00)

SMAP - Pass Details

Date: 27 October 2020
Orbit: 681 x 683 km, 98.1° (Epoch: 26 November)

Event Time Altitude Azimuth Distance (km) Brightness Sun altitude
Rises 16:47:18 0° 165° (SSE) 3,033 6.4 -5.2°
Reaches altitude 10° 16:49:31 10° 165° (SSE) 2,122 5.6 -5.6°
Maximum altitude 16:54:10 89° 253° (WSW) 690 3.1 -6.3°
Drops below altitude 10° 16:58:52 10° 346° (NNW) 2,138 5.7 -7.1°
Sets 17:01:07 0° 347° (NNW) 3,058 6.5 -7.5°
